Saginaw Browne, MI

2:57 PM EST on November 20, 2019 (GMT -0500)
Saginaw County-Browne

Weather History for KHYX - October, 2019

Change the Weather History Date:

Sunday, October 20, 2019

  Actual Average (WUND) Record (WUND)
Temperature  
Mean Temperature 55 °F -  
Max Temperature 68 °F - - (-1)
Min Temperature 42 °F - - (-1)
Degree Days  
Heating Degree Days 10    
Growing Degree Days 5 (Base 50)    
Moisture  
Dew Point 45 °F    
Average Humidity 76    
Maximum Humidity 93    
Minimum Humidity 46    
Precipitation  
Precipitation 0.00 in - - ()
Sea Level Pressure  
Sea Level Pressure 29.87 in    
Wind  
Wind Speed 2 mph ()    
Max Wind Speed 7 mph    
Max Gust Speed -    
Visibility 8.7 miles    
Events      
Averages and records for this station are not official NWS values.
T = Trace of Precipitation, MM = Missing Value Source: Averaged Metar Reports

Daily Weather History Graph

Daily Weather History Graph

Search for Another Location

Airport or City:

Astronomy

Oct. 20, 2019 Rise Set
Actual Time 7:55 AM EDT 6:44 PM EDT
Civil Twilight 7:26 AM EDT 7:13 PM EDT
Nautical Twilight 6:52 AM EDT 7:46 PM EDT
Astronomical Twilight 6:19 AM EDT 8:19 PM EDT
Moon 11:45 PM EDT 2:29 PM EDT
Length of Visible Light 11h 47m
Length of Day
10h 49m
Waning Gibbous, 59% of the Moon is Illuminated
Oct 20
Waning Gibbous
Oct 21
Last Quarter
Oct 27
New
Nov 4
First Quarter
Nov 12
Full

Hourly Weather History & Observations

Time (EDT) Temp. Windchill Dew Point Humidity Pressure Visibility Wind Dir Wind Speed Gust Speed Precip Events Conditions
12:19 AM 46.4 °F 44.3 °F 41.0 °F 81% 29.81 in 10.0 mi SE 4.6 mph - N/A   Clear
12:37 AM 48.2 °F - 41.0 °F 76% 29.81 in 5.0 mi SE 5.8 mph - N/A   Haze
12:55 AM 46.4 °F 44.3 °F 41.0 °F 81% 29.81 in 5.0 mi SE 4.6 mph - N/A   Haze
1:15 AM 46.4 °F 44.3 °F 41.0 °F 81% 29.80 in 5.0 mi SE 4.6 mph - N/A   Haze
1:16 AM 46.4 °F 44.3 °F 41.0 °F 81% 29.80 in 5.0 mi SE 4.6 mph - N/A   Haze
1:35 AM 46.4 °F 44.3 °F 41.0 °F 81% 29.80 in 4.0 mi SE 4.6 mph - N/A   Haze
1:40 AM 46.4 °F 45.2 °F 41.0 °F 81% 29.80 in 4.0 mi ESE 3.5 mph - N/A   Haze
1:58 AM 46.4 °F 45.2 °F 41.0 °F 81% 29.79 in 4.0 mi SE 3.5 mph - N/A   Haze
2:16 AM 46.4 °F 45.2 °F 41.0 °F 81% 29.79 in 3.0 mi SE 3.5 mph - N/A   Haze
2:35 AM 46.4 °F 45.2 °F 42.8 °F 87% 29.79 in 4.0 mi SE 3.5 mph - N/A   Clear
2:55 AM 44.6 °F 42.2 °F 42.8 °F 93% 29.79 in 3.0 mi SE 4.6 mph - N/A   Clear
2:56 AM 44.6 °F 42.2 °F 42.8 °F 93% 29.79 in 4.0 mi SE 4.6 mph - N/A   Clear
3:19 AM 44.6 °F 43.1 °F 42.8 °F 93% 29.79 in 7.0 mi SSE 3.5 mph - N/A   Clear
3:37 AM 44.6 °F - 42.8 °F 93% 29.79 in 10.0 mi Calm Calm - N/A   Clear
3:55 AM 44.6 °F - 42.8 °F 93% 29.78 in 10.0 mi Calm Calm - N/A   Clear
4:15 AM 42.8 °F - 41.0 °F 93% 29.79 in 7.0 mi Calm Calm - N/A   Clear
4:35 AM 42.8 °F 41.1 °F 41.0 °F 93% 29.79 in 7.0 mi WNW 3.5 mph - N/A   Clear
4:58 AM 42.8 °F - 41.0 °F 93% 29.78 in 7.0 mi Calm Calm - N/A   Scattered Clouds
5:16 AM 42.8 °F 40.1 °F 41.0 °F 93% 29.77 in 7.0 mi North 4.6 mph - N/A   Mostly Cloudy
5:35 AM 44.6 °F - 42.8 °F 93% 29.79 in 10.0 mi Calm Calm - N/A   Overcast
5:36 AM 44.6 °F - 42.8 °F 93% 29.79 in 10.0 mi Calm Calm - N/A   Overcast
5:55 AM 46.4 °F - 44.6 °F 93% 29.80 in 10.0 mi Calm Calm - N/A   Overcast
5:56 AM 46.4 °F - 44.6 °F 93% 29.80 in 10.0 mi Calm Calm - N/A   Overcast
6:18 AM 46.4 °F - 44.6 °F 93% 29.81 in 10.0 mi Calm Calm - N/A   Overcast
6:37 AM 46.4 °F - 44.6 °F 93% 29.81 in 7.0 mi Calm Calm - N/A   Overcast
6:56 AM 46.4 °F - 44.6 °F 93% 29.81 in 7.0 mi Calm Calm - N/A   Overcast
7:15 AM 46.4 °F 44.3 °F 44.6 °F 93% 29.81 in 7.0 mi ESE 4.6 mph - N/A   Overcast
7:35 AM 46.4 °F - 44.6 °F 93% 29.81 in 10.0 mi Calm Calm - N/A   Overcast
7:57 AM 46.4 °F - 44.6 °F 93% 29.81 in 7.0 mi Calm Calm - N/A   Overcast
8:16 AM 46.4 °F - 44.6 °F 93% 29.81 in 5.0 mi Calm Calm - N/A   Overcast
8:35 AM 46.4 °F - 44.6 °F 93% 29.83 in 5.0 mi Calm Calm - N/A   Overcast
8:55 AM 48.2 °F - 44.6 °F 87% 29.84 in 5.0 mi Calm Calm - N/A   Overcast
8:56 AM 48.2 °F - 44.6 °F 87% 29.84 in 5.0 mi Calm Calm - N/A   Overcast
9:19 AM 50.0 °F - 46.4 °F 87% 29.86 in 7.0 mi Calm Calm - N/A   Overcast
9:37 AM 50.0 °F - 46.4 °F 87% 29.87 in 10.0 mi Calm Calm - N/A   Overcast
9:55 AM 50.0 °F - 46.4 °F 87% 29.86 in 10.0 mi Calm Calm - N/A   Overcast
10:15 AM 51.8 °F - 46.4 °F 82% 29.87 in 10.0 mi Calm Calm - N/A   Overcast
10:35 AM 53.6 °F - 46.4 °F 77% 29.87 in 10.0 mi West 4.6 mph - N/A   Overcast
11:16 AM 55.4 °F - 46.4 °F 72% 29.88 in 10.0 mi West 3.5 mph - N/A   Overcast
11:35 AM 55.4 °F - 46.4 °F 72% 29.89 in 10.0 mi Calm Calm - N/A   Overcast
11:36 AM 55.4 °F - 46.4 °F 72% 29.89 in 10.0 mi Calm Calm - N/A   Overcast
11:55 AM 55.4 °F - 46.4 °F 72% 29.89 in 10.0 mi Calm Calm - N/A   Mostly Cloudy
12:19 PM 60.8 °F - 48.2 °F 63% 29.89 in 10.0 mi Calm Calm - N/A   Scattered Clouds
12:37 PM 60.8 °F - 46.4 °F 59% 29.89 in 10.0 mi Calm Calm - N/A   Clear
12:55 PM 62.6 °F - 46.4 °F 55% 29.88 in 10.0 mi WSW 3.5 mph - N/A   Clear
12:56 PM 62.6 °F - 46.4 °F 55% 29.88 in 10.0 mi SSW 3.5 mph - N/A   Clear
1:15 PM 62.6 °F - 46.4 °F 55% 29.89 in 10.0 mi SSW 4.6 mph - N/A   Clear
1:35 PM 64.4 °F - 46.4 °F 52% 29.88 in 10.0 mi SSW 4.6 mph - N/A   Clear
1:58 PM 66.2 °F - 46.4 °F 49% 29.88 in 10.0 mi WSW 3.5 mph - N/A   Clear
2:16 PM 64.4 °F - 46.4 °F 52% 29.88 in 10.0 mi West 5.8 mph - N/A   Clear
2:35 PM 66.2 °F - 46.4 °F 49% 29.88 in 10.0 mi SW 5.8 mph - N/A   Clear
2:36 PM 66.2 °F - 46.4 °F 49% 29.88 in 10.0 mi SW 4.6 mph - N/A   Clear
2:55 PM 66.2 °F - 48.2 °F 52% 29.88 in 10.0 mi Calm Calm - N/A   Clear
3:19 PM 68.0 °F - 48.2 °F 49% 29.88 in 10.0 mi West 3.5 mph - N/A   Clear
3:37 PM 68.0 °F - 48.2 °F 49% 29.88 in 10.0 mi WNW 3.5 mph - N/A   Clear
3:55 PM 68.0 °F - 46.4 °F 46% 29.88 in 10.0 mi WSW 5.8 mph - N/A   Scattered Clouds
3:56 PM 68.0 °F - 46.4 °F 46% 29.88 in 10.0 mi WSW 3.5 mph - N/A   Scattered Clouds
4:15 PM 66.2 °F - 48.2 °F 52% 29.89 in 10.0 mi Calm Calm - N/A   Clear
4:16 PM 68.0 °F - 48.2 °F 49% 29.89 in 10.0 mi Calm Calm - N/A   Clear
4:35 PM 68.0 °F - 46.4 °F 46% 29.89 in 10.0 mi WSW 3.5 mph - N/A   Clear
4:58 PM 68.0 °F - 48.2 °F 49% 29.90 in 10.0 mi SW 3.5 mph - N/A   Clear
5:16 PM 66.2 °F - 48.2 °F 52% 29.90 in 10.0 mi SSW 3.5 mph - N/A   Scattered Clouds
5:35 PM 66.2 °F - 50.0 °F 56% 29.91 in 10.0 mi West 3.5 mph - N/A   Scattered Clouds
5:36 PM 66.2 °F - 50.0 °F 56% 29.91 in 10.0 mi West 3.5 mph - N/A   Scattered Clouds
5:55 PM 64.4 °F - 48.2 °F 56% 29.90 in 10.0 mi Calm Calm - N/A   Scattered Clouds
6:19 PM 64.4 °F - 50.0 °F 59% 29.91 in 10.0 mi Calm Calm - N/A   Clear
6:37 PM 62.6 °F - 50.0 °F 63% 29.91 in 10.0 mi Calm Calm - N/A   Clear
6:55 PM 60.8 °F - 48.2 °F 63% 29.92 in 10.0 mi Calm Calm - N/A   Clear
6:56 PM 60.8 °F - 48.2 °F 63% 29.92 in 10.0 mi Calm Calm - N/A   Clear
7:15 PM 57.2 °F - 48.2 °F 72% 29.93 in 10.0 mi Calm Calm - N/A   Clear
7:16 PM 57.2 °F - 48.2 °F 72% 29.93 in 10.0 mi Calm Calm - N/A   Clear
7:35 PM 55.4 °F - 48.2 °F 77% 29.94 in 10.0 mi Calm Calm - N/A   Clear
7:40 PM 57.2 °F - 48.2 °F 72% 29.94 in 10.0 mi Calm Calm - N/A   Clear
7:58 PM 53.6 °F - 46.4 °F 77% 29.95 in 10.0 mi Calm Calm - N/A   Clear
8:16 PM 55.4 °F - 48.2 °F 77% 29.96 in 10.0 mi Calm Calm - N/A   Clear
8:35 PM 53.6 °F - 46.4 °F 77% 29.96 in 10.0 mi ESE 3.5 mph - N/A   Clear
8:55 PM 51.8 °F - 46.4 °F 82% 29.96 in 10.0 mi Calm Calm - N/A   Clear
9:19 PM 50.0 °F - 46.4 °F 87% 29.96 in 10.0 mi Calm Calm - N/A   Clear
9:36 PM 50.0 °F - 44.6 °F 82% 29.96 in 10.0 mi Calm Calm - N/A   Clear
9:55 PM 48.2 °F - 44.6 °F 87% 29.96 in 10.0 mi SSE 3.5 mph - N/A   Clear
9:56 PM 48.2 °F - 44.6 °F 87% 29.96 in 10.0 mi SSE 3.5 mph - N/A   Clear
10:15 PM 50.0 °F - 46.4 °F 87% 29.97 in 10.0 mi Calm Calm - N/A   Clear
10:16 PM 50.0 °F - 46.4 °F 87% 29.97 in 10.0 mi Calm Calm - N/A   Clear
10:35 PM 50.0 °F - 46.4 °F 87% 29.98 in 10.0 mi North 4.6 mph - N/A   Clear
10:36 PM 50.0 °F - 46.4 °F 87% 29.98 in 10.0 mi North 3.5 mph - N/A   Clear
10:59 PM 48.2 °F - 44.6 °F 87% 29.98 in 10.0 mi NE 6.9 mph - N/A   Clear
11:17 PM 48.2 °F - 44.6 °F 87% 29.98 in 10.0 mi ENE 4.6 mph - N/A   Clear
11:35 PM 50.0 °F - 46.4 °F 87% 29.98 in 10.0 mi East 6.9 mph - N/A   Clear
11:55 PM 50.0 °F - 44.6 °F 82% 29.99 in 10.0 mi Calm Calm - N/A   Clear
11:56 PM 50.0 °F - 44.6 °F 82% 29.99 in 10.0 mi Calm Calm - N/A   Clear